[[{"header":{"parameterUnit":"m.s-1","parameterCategory":1,"la1":30.2991,"la2":30.254,"lo1":-89.0895,"lo2":-89.0444,"dy":0.0017,"dx":0.0017,"nx":28,"ny":28,"refTime":"2023-10-05T03:00:00:Z","depth":0,"parameterNumber":2,"parameterNumberName":"U-component_of_WINDS"},"data":[0,0,0,0,0,0,0,0,0,0,0,0,0,0,0,0,0,0,0,0,0,0,0,0,0,0,0,0,0,0,0,0,0,0,0,0,0,0,0,0,0,0,0,0,0,0,0,0,0,0,0,0,0,0,0,0,0,0,-2.3641,-2.3641,0,-2.3624,-2.3624,-2.3624,-2.3511,-2.3508,-2.3506,-2.3503,-2.3487,-2.3489,-2.3491,0,0,0,0,0,0,0,0,0,0,0,0,0,-2.3579,-2.358,-2.3641,-2.3641,-2.3641,-2.3624,-2.3624,-2.3624,-2.3512,-2.3508,-2.3505,-2.3502,-2.3486,-2.3489,-2.3491,0,0,0,0,0,0,0,0,0,0,0,0,0,-2.3588,-2.3581,-2.3641,-2.3583,-2.3578,-2.3624,-2.3624,-2.3624,-2.3512,-2.3508,-2.3504,-2.35,-2.3485,-2.3488,-2.3492,-2.3593,0,0,-2.3501,-2.3503,0,0,0,0,0,0,0,0,-2.3588,-2.3591,-2.3592,-2.3587,-2.3581,-2.3566,-2.3596,-2.3614,-2.3513,-2.3537,-2.3503,-2.3498,-2.3516,-2.3517,-2.3523,-2.3593,-2.3592,-2.3502,-2.3503,-2.3505,-2.3506,0,0,0,0,0,0,0,-2.3587,-2.3591,-2.3635,-2.3592,-2.3585,-2.3558,-2.3555,-2.3599,-2.355,-2.3535,-2.3527,-2.3526,-2.3513,-2.352,-2.3521,-2.3592,-2.3501,-2.3504,-2.3506,-2.3507,-2.3745,-2.3749,0,0,0,0,0,0,-2.3595,-2.3591,-2.3635,-2.3634,-2.3574,-2.3563,-2.3559,-2.3575,-2.3549,-2.3541,-2.353,-2.3521,-2.3516,-2.3518,-2.352,-2.3638,-2.3505,-2.3508,-2.351,-2.374,-2.3746,-2.375,0,0,0,0,0,0,-2.3594,-2.36,-2.3636,-2.361,-2.3613,-2.3568,-2.3587,-2.3577,-2.3583,-2.3545,-2.3536,-2.3546,-2.3513,-2.3516,-2.3576,-2.3636,-2.3509,-2.3512,-2.3735,-2.3742,-2.3748,-2.3874,0,0,0,0,0,0,-2.3592,-2.36,-2.3638,-2.3612,-2.3615,-2.3692,-2.359,-2.3579,-2.3589,-2.3578,-2.3558,-2.3551,-2.351,-2.3572,-2.3579,-2.3638,-2.3515,-2.373,-2.3738,-2.3746,-2.3865,-2.3884,-2.3901,0,0,0,0,0,-2.3591,-2.3674,-2.364,-2.3646,-2.3661,-2.3695,-2.3697,-2.3648,-2.3594,-2.3632,-2.3608,-2.3551,-2.3628,-2.3579,-2.3586,-2.3647,-2.3726,-2.3736,-2.3745,-2.3856,-2.388,-2.3901,0,0,0,0,0,0,-2.3709,-2.367,-2.3632,-2.3709,-2.3707,-2.3676,-2.3722,-2.3675,-2.3688,-2.3676,-2.3616,-2.3612,-2.3682,-2.367,-2.3616,-2.3744,-2.3667,-2.3679,-2.3749,-2.3772,-2.379,-2.3791,-2.3517,0,0,0,0,0,-2.3744,-2.3774,-2.3739,-2.3811,-2.3812,-2.3768,-2.3781,-2.3744,-2.3738,-2.3736,-2.3716,-2.3714,-2.3737,-2.3754,-2.3773,-2.3862,-2.3857,-2.3908,-2.3926,-2.3941,-2.3952,-2.3999,-2.4021,-2.3783,-2.3783,-2.3783,0,0,-2.3816,-2.3799,-2.3822,-2.3834,-2.3828,-2.3861,-2.3767,-2.3807,-2.3831,-2.3742,-2.3798,-2.3783,-2.3776,-2.3852,-2.3884,-2.3844,-2.4017,-2.3954,-2.3967,-2.3969,-2.4011,-2.4034,-2.4054,-2.379,-2.3788,-2.3787,0,0,-2.3966,-2.3956,-2.4015,-2.401,-2.4001,-2.3972,-2.3986,-2.3963,-2.395,-2.4005,-2.3939,-2.3967,-2.4009,-2.4007,-2.4011,-2.4161,-2.411,-2.4169,-2.4265,-2.4312,-2.433,-2.4347,-2.44,-2.442,-2.418,-2.4181,-2.4181,0,-2.4058,-2.4105,-2.4051,-2.4095,-2.4103,-2.4024,-2.4084,-2.4082,-2.408,-2.4087,-2.4043,-2.4094,-2.4084,-2.4157,-2.4194,-2.42,-2.4215,-2.4171,-2.4332,-2.4348,-2.4362,-2.4413,-2.4433,-2.4188,-2.4187,-2.4186,-2.4186,0,-2.4218,-2.4253,-2.4302,-2.4302,-2.4315,-2.4366,-2.4321,-2.4341,-2.4303,-2.4278,-2.4335,-2.432,-2.4335,-2.435,-2.4313,-2.4419,-2.4395,-2.4343,-2.4264,-2.4393,-2.444,-2.4458,-2.4198,-2.4196,-2.4194,-2.4192,0,0,-2.4441,-2.4411,-2.443,-2.4429,-2.4414,-2.444,-2.4488,-2.4503,-2.4521,-2.4523,-2.4562,-2.46,-2.4551,-2.4556,-2.4519,-2.4559,-2.4679,-2.4501,-2.45,-2.4535,-2.4795,-2.4835,-2.4858,-2.4645,-2.4649,-2.4652,-2.4796,0,-2.4585,-2.4665,-2.4619,-2.4706,-2.4737,-2.4663,-2.4705,-2.4701,-2.468,-2.4703,-2.468,-2.4707,-2.4641,-2.4644,-2.4681,-2.4657,-2.4731,-2.4646,-2.4682,-2.4684,-2.4685,-2.4882,-2.4924,-2.506,-2.4814,-2.4817,-2.4819,0,-2.4763,-2.4772,-2.4863,-2.4842,-2.4853,-2.4892,-2.4902,-2.4925,-2.4919,-2.4901,-2.4907,-2.486,-2.4906,-2.4829,-2.4893,-2.4836,-2.4848,-2.4839,-2.4843,-2.4844,-2.4759,-2.4889,-2.5103,-2.5123,-2.4847,-2.4845,-2.4843,0,-2.4916,-2.4951,-2.501,-2.5012,-2.4989,-2.5018,-2.501,-2.5,-2.5012,-2.502,-2.5028,-2.5042,-2.505,-2.5063,-2.5021,-2.4969,-2.5091,-2.501,-2.5077,-2.5078,-2.5105,-2.5104,-2.5325,-2.5114,-2.5114,-2.5114,-2.5113,0,-2.5081,-2.5139,-2.5079,-2.5115,-2.5178,-2.5125,-2.5189,-2.5173,-2.5165,-2.5197,-2.5134,-2.5166,-2.5109,-2.5135,-2.5103,-2.516,-2.5165,-2.5151,-2.5142,-2.5157,-2.5159,-2.5163,-2.5153,-2.5119,-2.5118,-2.5117,-2.5116,0,-2.5263,-2.5224,-2.5283,-2.5257,-2.5252,-2.53,-2.5278,-2.531,-2.5285,-2.5326,-2.5333,-2.5294,-2.5321,-2.5281,-2.5304,-2.5282,-2.5362,-2.5338,-2.5364,-2.5357,-2.5426,-2.542,-2.5657,-2.5686,-2.5458,-2.546,-2.5462,0,-2.537,-2.5413,-2.5392,-2.5409,-2.5404,-2.5432,-2.5444,-2.5393,-2.5408,-2.5405,-2.5439,-2.5461,-2.5476,-2.5523,-2.5497,-2.5515,-2.5491,-2.5573,-2.5493,-2.5507,-2.5492,-2.549,-2.5494,-2.5589,-2.5592,-2.5594,-2.5596,0,-2.5565,-2.5544,-2.5563,-2.5577,-2.5593,-2.5601,-2.5604,-2.5622,-2.5568,-2.5589,-2.5616,-2.5628,-2.5652,-2.5675,-2.5686,-2.5678,-2.5629,-2.5621,-2.5637,-2.5653,-2.5666,-2.566,-2.5408,-2.5616,-2.5614,-2.5612,-2.5611,-2.561,-2.5712,-2.5747,-2.5738,-2.5762,-2.5759,-2.5764,-2.5793,-2.5772,-2.5794,-2.5809,-2.5778,-2.5813,-2.5806,-2.5816,-2.5814,-2.5841,-2.5805,-2.5829,-2.5835,-2.5841,-2.5852,-2.5662,-2.5843,-2.5842,-2.5841,-2.5841,-2.584,0,-2.5904,-2.5894,-2.5917,-2.5923,-2.5943,-2.5894,-2.5896,-2.5915,-2.5947,-2.5945,-2.5961,-2.5993,-2.6015,-2.5991,-2.6009,-2.6035,-2.6013,-2.6041,-2.6039,-2.6038,-2.5883,-2.5867,-2.6059,-2.6059,-2.6059,-2.6059,-2.6059,-2.6059,-2.6005,-2.6062,-2.6041,-2.6096,-2.6085,-2.6119,-2.6124,-2.6129,-2.6127,-2.6165,-2.6183,-2.6167,-2.6156,-2.6173,-2.6191,-2.6184,-2.6193,-2.623,-2.6214,-2.607,-2.6049,-2.6028,-2.6013,-2.6232,-2.6233,-2.6366,-2.6368,-2.6369]},{"header":{"parameterUnit":"m.s-1","parameterCategory":1,"la1":30.2991,"la2":30.254,"lo1":-89.0895,"lo2":-89.0444,"dy":0.0017,"dx":0.0017,"nx":28,"ny":28,"refTime":"2023-10-05T03:00:00:Z","depth":0,"parameterNumber":3,"parameterNumberName":"V-component_of_WINDS"},"data":[0,0,0,0,0,0,0,0,0,0,0,0,0,0,0,0,0,0,0,0,0,0,0,0,0,0,0,0,0,0,0,0,0,0,0,0,0,0,0,0,0,0,0,0,0,0,0,0,0,0,0,0,0,0,0,0,0,0,0.6183,0.6181,0,0.601,0.6008,0.6006,0.5845,0.5843,0.5841,0.5839,0.5658,0.5655,0.5652,0,0,0,0,0,0,0,0,0,0,0,0,0,0.6374,0.6371,0.6183,0.6181,0.6179,0.601,0.6007,0.6005,0.5845,0.5843,0.5841,0.5838,0.5659,0.5655,0.5652,0,0,0,0,0,0,0,0,0,0,0,0,0,0.6255,0.637,0.6184,0.6079,0.6068,0.601,0.6007,0.6004,0.5846,0.5843,0.584,0.5837,0.566,0.5656,0.5651,0.5682,0,0,0.5637,0.5636,0,0,0,0,0,0,0,0,0.6262,0.6248,0.6097,0.6086,0.6074,0.5946,0.6008,0.5896,0.5847,0.593,0.5839,0.5836,0.5756,0.5743,0.5717,0.5674,0.5666,0.5637,0.5634,0.5632,0.5631,0,0,0,0,0,0,0,0.627,0.6254,0.6114,0.6095,0.6081,0.604,0.602,0.5986,0.5861,0.5923,0.5911,0.5892,0.5749,0.5722,0.5712,0.5663,0.5637,0.5633,0.563,0.5629,0.5636,0.5639,0,0,0,0,0,0,0.6295,0.6262,0.612,0.6109,0.6162,0.6039,0.6016,0.599,0.5861,0.5839,0.5895,0.5886,0.5731,0.5717,0.5705,0.5732,0.5632,0.5628,0.5626,0.5633,0.5637,0.564,0,0,0,0,0,0,0.6299,0.6284,0.6127,0.6182,0.6159,0.6039,0.601,0.5988,0.5961,0.5841,0.5817,0.589,0.5728,0.5711,0.5689,0.5724,0.5626,0.5622,0.563,0.5635,0.5639,0.5789,0,0,0,0,0,0,0.6306,0.6286,0.6297,0.6184,0.6157,0.6116,0.6012,0.5987,0.5954,0.594,0.583,0.5809,0.5725,0.5697,0.5685,0.5716,0.5619,0.5626,0.5632,0.5637,0.578,0.5798,0.5813,0,0,0,0,0,0.6313,0.6346,0.6299,0.6283,0.6169,0.6118,0.6103,0.6006,0.5957,0.5967,0.589,0.5813,0.5722,0.5696,0.5681,0.5711,0.5624,0.563,0.5637,0.5773,0.5794,0.5813,0,0,0,0,0,0,0.6465,0.6329,0.6275,0.6273,0.6209,0.6091,0.61,0.6031,0.5978,0.5967,0.5848,0.5825,0.5817,0.5761,0.5735,0.5735,0.5662,0.5666,0.5771,0.579,0.5807,0.582,0.5615,0,0,0,0,0,0.6498,0.647,0.6352,0.6361,0.6331,0.6222,0.6196,0.6128,0.6056,0.6027,0.5948,0.5881,0.5837,0.581,0.5763,0.5772,0.5745,0.5785,0.5802,0.5816,0.582,0.5821,0.5837,0.5662,0.5662,0.5661,0,0,0.6566,0.6489,0.6478,0.6389,0.6331,0.6304,0.62,0.6175,0.6153,0.6023,0.5998,0.5938,0.5854,0.5848,0.5841,0.5802,0.5863,0.5824,0.5836,0.5833,0.5829,0.5846,0.5861,0.5666,0.5665,0.5665,0,0,0.6677,0.6615,0.6616,0.6561,0.6475,0.6402,0.6403,0.6296,0.6252,0.6226,0.6128,0.6099,0.6026,0.5971,0.5934,0.6025,0.5952,0.6013,0.6098,0.61,0.6114,0.6125,0.6158,0.6171,0.6018,0.6018,0.6018,0,0.6772,0.6727,0.6625,0.6606,0.657,0.6453,0.6453,0.6403,0.6307,0.6284,0.6242,0.6149,0.6084,0.6063,0.6086,0.6059,0.6056,0.6024,0.612,0.6131,0.614,0.617,0.6183,0.6026,0.6025,0.6024,0.6024,0,0.6849,0.682,0.683,0.6742,0.6707,0.6698,0.6593,0.657,0.6505,0.6437,0.6411,0.633,0.6265,0.6255,0.619,0.6225,0.6204,0.6143,0.6067,0.6167,0.6193,0.6204,0.6038,0.6035,0.6032,0.603,0,0,0.7049,0.6905,0.6911,0.6869,0.6767,0.6742,0.6727,0.6665,0.6648,0.6585,0.6569,0.6511,0.6455,0.6412,0.634,0.6342,0.642,0.628,0.6276,0.6309,0.6455,0.6502,0.6517,0.6371,0.6373,0.6374,0.6462,0,0.7142,0.711,0.7018,0.7014,0.6986,0.6875,0.6862,0.6798,0.6734,0.67,0.6628,0.6589,0.6517,0.6491,0.6488,0.6412,0.6448,0.6404,0.6355,0.6355,0.638,0.653,0.6579,0.6665,0.6471,0.6473,0.6474,0,0.7246,0.7193,0.7187,0.7087,0.7071,0.7062,0.6998,0.6967,0.6891,0.6844,0.6799,0.6719,0.6697,0.6628,0.6596,0.6568,0.6543,0.6503,0.6503,0.6495,0.6421,0.6526,0.669,0.6704,0.6489,0.6488,0.6487,0,0.7393,0.7319,0.7306,0.7274,0.7157,0.7153,0.7104,0.7026,0.6995,0.6938,0.6917,0.6859,0.6827,0.6783,0.669,0.6649,0.6669,0.6592,0.6629,0.6632,0.6638,0.6639,0.6801,0.6622,0.6622,0.6622,0.6621,0,0.7507,0.7507,0.7371,0.7363,0.7361,0.7255,0.7255,0.7195,0.7127,0.7104,0.7004,0.6985,0.6863,0.683,0.6757,0.6742,0.6728,0.6689,0.667,0.6698,0.6704,0.668,0.6672,0.6625,0.6624,0.6623,0.6623,0,0.767,0.7579,0.7558,0.7449,0.7422,0.7425,0.7331,0.7319,0.725,0.7223,0.7211,0.7102,0.7058,0.6961,0.689,0.6841,0.6844,0.6809,0.687,0.6858,0.6901,0.6899,0.7054,0.7069,0.6881,0.6883,0.6885,0,0.7749,0.7747,0.7639,0.7618,0.7573,0.754,0.7509,0.7404,0.7375,0.729,0.7289,0.7237,0.7191,0.7126,0.7039,0.6985,0.6948,0.7006,0.6939,0.6968,0.6949,0.6951,0.695,0.7021,0.7024,0.7026,0.7027,0,0.7898,0.7853,0.7812,0.7756,0.7722,0.7672,0.7617,0.7605,0.7487,0.746,0.7415,0.7379,0.7308,0.7258,0.7191,0.7139,0.7064,0.705,0.7055,0.7084,0.712,0.7102,0.6911,0.7046,0.7044,0.7043,0.7042,0.7041,0.802,0.8014,0.7938,0.7896,0.7844,0.7795,0.7779,0.7709,0.767,0.7605,0.7546,0.7507,0.7431,0.7334,0.7287,0.7254,0.7216,0.7225,0.7227,0.7231,0.7243,0.7126,0.7241,0.7241,0.724,0.724,0.7239,0,0.8165,0.8111,0.8073,0.8,0.7968,0.7902,0.7837,0.7814,0.7781,0.7718,0.7675,0.7624,0.7576,0.7487,0.743,0.7421,0.7386,0.741,0.741,0.7399,0.728,0.7281,0.744,0.744,0.744,0.744,0.744,0.744,0.8236,0.8222,0.8169,0.8129,0.8074,0.8036,0.8005,0.796,0.7909,0.7857,0.7817,0.776,0.7686,0.7624,0.7577,0.7551,0.7536,0.7572,0.7536,0.7426,0.7407,0.7389,0.7389,0.7569,0.7569,0.7657,0.7658,0.7659]}]]